iso_date,epoch_date,Year,Hour,Min,DOY,POS_DOY,Lat,Lon,BP,Ts,Ta,has_bp,has_ts,has_ta,BuoyID,Buoy_Type,Buoy_Owner,Logistics,Hemisphere
2017-12-04T21:00:00Z,1512421200,2017,21,0,338.875,338.875,71.3254,-156.6754,1007.5,-11.12,-999.0,yes,yes,no,300234063986340,ICEBALL,USIABP,UTQ2019,North
2017-12-04T22:00:28Z,1512424829,2017,22,0,338.917,338.917,71.3254,-156.675,1008.1,-11.48,-999.0,yes,yes,no,300234063986340,ICEBALL,USIABP,UTQ2019,North
2017-12-04T22:59:31Z,1512428371,2017,23,0,338.958,338.958,71.3254,-156.6752,1008.4,-11.56,-999.0,yes,yes,no,300234063986340,ICEBALL,USIABP,UTQ2019,North
2017-12-05T00:00:00Z,1512432000,2017,0,0,339.0,339.0,71.3254,-156.6752,1008.6,-11.7,-999.0,yes,yes,no,300234063986340,ICEBALL,USIABP,UTQ2019,North
2017-12-05T01:00:28Z,1512435629,2017,1,0,339.042,339.042,71.3262,-156.67641,1008.6,-12.04,-999.0,yes,yes,no,300234063986340,ICEBALL,USIABP,UTQ2019,North
2017-12-05T01:59:31Z,1512439171,2017,2,0,339.083,339.083,71.3254,-156.675,1009.0,-12.39,-999.0,yes,yes,no,300234063986340,ICEBALL,USIABP,UTQ2019,North
2017-12-05T03:00:00Z,1512442800,2017,3,0,339.125,339.125,71.3254,-156.6752,1009.7,-12.7,-999.0,yes,yes,no,300234063986340,ICEBALL,USIABP,UTQ2019,North
2017-12-05T04:00:28Z,1512446429,2017,4,0,339.167,339.167,71.3252,-156.675,1010.2,-12.41,-999.0,yes,yes,no,300234063986340,ICEBALL,USIABP,UTQ2019,North
2017-12-05T22:00:28Z,1512511229,2017,22,0,339.917,339.917,71.3694,-156.4102,1015.5,-13.86,-999.0,yes,yes,no,300234063986340,ICEBALL,USIABP,UTQ2019,North
2017-12-05T22:59:31Z,1512514771,2017,23,0,339.958,339.958,71.3696,-156.4104,1015.6,-12.72,-999.0,yes,yes,no,300234063986340,ICEBALL,USIABP,UTQ2019,North
2017-12-06T00:00:00Z,1512518400,2017,0,0,340.0,340.0,71.3694,-156.4104,1015.5,-12.57,-999.0,yes,yes,no,300234063986340,ICEBALL,USIABP,UTQ2019,North
2017-12-06T01:00:28Z,1512522029,2017,1,0,340.042,340.042,71.3694,-156.41,1015.4,-12.07,-999.0,yes,yes,no,300234063986340,ICEBALL,USIABP,UTQ2019,North
2017-12-06T01:59:31Z,1512525571,2017,2,0,340.083,340.083,71.3694,-156.4102,1014.9,-11.99,-999.0,yes,yes,no,300234063986340,ICEBALL,USIABP,UTQ2019,North
2017-12-06T03:00:00Z,1512529200,2017,3,0,340.125,340.125,71.3694,-156.4104,1015.1,-11.68,-999.0,yes,yes,no,300234063986340,ICEBALL,USIABP,UTQ2019,North
2017-12-06T04:00:28Z,1512532829,2017,4,0,340.167,340.167,71.3694,-156.4102,1014.6,-11.94,-999.0,yes,yes,no,300234063986340,ICEBALL,USIABP,UTQ2019,North
2017-12-06T04:59:31Z,1512536371,2017,5,0,340.208,340.208,71.3694,-156.4102,1014.3,-11.73,-999.0,yes,yes,no,300234063986340,ICEBALL,USIABP,UTQ2019,North
2017-12-06T06:00:00Z,1512540000,2017,6,0,340.25,340.25,71.3694,-156.4102,1014.6,-11.91,-999.0,yes,yes,no,300234063986340,ICEBALL,USIABP,UTQ2019,North
2017-12-06T07:00:28Z,1512543629,2017,7,0,340.292,340.292,71.3694,-156.4102,1014.6,-12.09,-999.0,yes,yes,no,300234063986340,ICEBALL,USIABP,UTQ2019,North
2017-12-06T07:59:31Z,1512547171,2017,8,0,340.333,340.333,71.3694,-156.4102,1014.6,-11.51,-999.0,yes,yes,no,300234063986340,ICEBALL,USIABP,UTQ2019,North
2017-12-06T09:00:00Z,1512550800,2017,9,0,340.375,340.375,71.3696,-156.4104,1014.5,-11.09,-999.0,yes,yes,no,300234063986340,ICEBALL,USIABP,UTQ2019,North
2017-12-06T10:00:28Z,1512554429,2017,10,0,340.417,340.417,71.3696,-156.4102,1014.7,-11.05,-999.0,yes,yes,no,300234063986340,ICEBALL,USIABP,UTQ2019,North
2017-12-06T10:59:31Z,1512557971,2017,11,0,340.458,340.458,71.3696,-156.4102,1014.6,-10.92,-999.0,yes,yes,no,300234063986340,ICEBALL,USIABP,UTQ2019,North
2017-12-06T12:00:00Z,1512561600,2017,12,0,340.5,340.5,71.3694,-156.4102,1014.4,-10.81,-999.0,yes,yes,no,300234063986340,ICEBALL,USIABP,UTQ2019,North
2017-12-06T13:00:28Z,1512565229,2017,13,0,340.542,340.542,71.3694,-156.4102,1014.3,-11.43,-999.0,yes,yes,no,300234063986340,ICEBALL,USIABP,UTQ2019,North
2017-12-06T13:59:31Z,1512568771,2017,14,0,340.583,340.583,71.3696,-156.4102,1014.3,-11.36,-999.0,yes,yes,no,300234063986340,ICEBALL,USIABP,UTQ2019,North
2017-12-06T15:00:00Z,1512572400,2017,15,0,340.625,340.625,71.3694,-156.4102,1014.2,-11.07,-999.0,yes,yes,no,300234063986340,ICEBALL,USIABP,UTQ2019,North
2017-12-06T16:00:28Z,1512576029,2017,16,0,340.667,340.667,71.3694,-156.4102,1014.1,-11.01,-999.0,yes,yes,no,300234063986340,ICEBALL,USIABP,UTQ2019,North
2017-12-06T16:59:31Z,1512579571,2017,17,0,340.708,340.708,71.3694,-156.4102,1013.8,-10.79,-999.0,yes,yes,no,300234063986340,ICEBALL,USIABP,UTQ2019,North
2017-12-06T18:00:00Z,1512583200,2017,18,0,340.75,340.75,71.3694,-156.4102,1013.9,-10.72,-999.0,yes,yes,no,300234063986340,ICEBALL,USIABP,UTQ2019,North
2017-12-06T19:00:28Z,1512586829,2017,19,0,340.792,340.792,71.3694,-156.4102,1013.8,-10.69,-999.0,yes,yes,no,300234063986340,ICEBALL,USIABP,UTQ2019,North
2017-12-06T19:59:31Z,1512590371,2017,20,0,340.833,340.833,71.3694,-156.4102,1014.0,-10.78,-999.0,yes,yes,no,300234063986340,ICEBALL,USIABP,UTQ2019,North
2017-12-06T21:00:00Z,1512594000,2017,21,0,340.875,340.875,71.3696,-156.4104,1014.1,-10.88,-999.0,yes,yes,no,300234063986340,ICEBALL,USIABP,UTQ2019,North
2017-12-06T22:00:28Z,1512597629,2017,22,0,340.917,340.917,71.3694,-156.4102,1014.1,-10.84,-999.0,yes,yes,no,300234063986340,ICEBALL,USIABP,UTQ2019,North
2017-12-06T22:59:31Z,1512601171,2017,23,0,340.958,340.958,71.3694,-156.4102,1014.1,-10.69,-999.0,yes,yes,no,300234063986340,ICEBALL,USIABP,UTQ2019,North
2017-12-07T00:00:00Z,1512604800,2017,0,0,341.0,341.0,71.3694,-156.4102,1013.9,-10.64,-999.0,yes,yes,no,300234063986340,ICEBALL,USIABP,UTQ2019,North
2017-12-07T01:00:28Z,1512608429,2017,1,0,341.042,341.042,71.3694,-156.41,1014.2,-10.47,-999.0,yes,yes,no,300234063986340,ICEBALL,USIABP,UTQ2019,North
2017-12-07T01:59:31Z,1512611971,2017,2,0,341.083,341.083,71.3694,-156.4102,1014.1,-10.41,-999.0,yes,yes,no,300234063986340,ICEBALL,USIABP,UTQ2019,North
2017-12-07T03:00:00Z,1512615600,2017,3,0,341.125,341.125,71.3694,-156.4102,1014.5,-10.44,-999.0,yes,yes,no,300234063986340,ICEBALL,USIABP,UTQ2019,North
2017-12-07T04:00:28Z,1512619229,2017,4,0,341.167,341.167,71.3696,-156.4102,1014.9,-10.4,-999.0,yes,yes,no,300234063986340,ICEBALL,USIABP,UTQ2019,North
2017-12-07T04:59:31Z,1512622771,2017,5,0,341.208,341.208,71.3694,-156.4102,1015.1,-10.69,-999.0,yes,yes,no,300234063986340,ICEBALL,USIABP,UTQ2019,North
2017-12-07T06:00:00Z,1512626400,2017,6,0,341.25,341.25,71.3694,-156.4102,1015.3,-10.77,-999.0,yes,yes,no,300234063986340,ICEBALL,USIABP,UTQ2019,North
2017-12-07T07:00:28Z,1512630029,2017,7,0,341.292,341.292,71.3694,-156.4102,1015.5,-10.7,-999.0,yes,yes,no,300234063986340,ICEBALL,USIABP,UTQ2019,North
2017-12-07T07:59:31Z,1512633571,2017,8,0,341.333,341.333,71.3694,-156.4102,1016.2,-10.38,-999.0,yes,yes,no,300234063986340,ICEBALL,USIABP,UTQ2019,North
2017-12-07T09:00:00Z,1512637200,2017,9,0,341.375,341.375,71.3694,-156.4102,1017.0,-10.46,-999.0,yes,yes,no,300234063986340,ICEBALL,USIABP,UTQ2019,North
2017-12-07T10:00:28Z,1512640829,2017,10,0,341.417,341.417,71.3694,-156.4102,1017.7,-10.49,-999.0,yes,yes,no,300234063986340,ICEBALL,USIABP,UTQ2019,North
2017-12-07T10:59:31Z,1512644371,2017,11,0,341.458,341.458,71.3696,-156.4102,1018.1,-10.63,-999.0,yes,yes,no,300234063986340,ICEBALL,USIABP,UTQ2019,North
2017-12-07T12:00:00Z,1512648000,2017,12,0,341.5,341.5,71.3694,-156.4102,1018.6,-10.81,-999.0,yes,yes,no,300234063986340,ICEBALL,USIABP,UTQ2019,North
2017-12-07T13:00:28Z,1512651629,2017,13,0,341.542,341.542,71.3696,-156.4102,1019.1,-10.78,-999.0,yes,yes,no,300234063986340,ICEBALL,USIABP,UTQ2019,North
2017-12-07T13:59:31Z,1512655171,2017,14,0,341.583,341.583,71.3696,-156.4102,1019.3,-10.86,-999.0,yes,yes,no,300234063986340,ICEBALL,USIABP,UTQ2019,North
2017-12-07T15:00:00Z,1512658800,2017,15,0,341.625,341.625,71.3694,-156.4102,1019.7,-11.16,-999.0,yes,yes,no,300234063986340,ICEBALL,USIABP,UTQ2019,North
2017-12-07T16:00:28Z,1512662429,2017,16,0,341.667,341.667,71.3694,-156.4102,1020.1,-11.31,-999.0,yes,yes,no,300234063986340,ICEBALL,USIABP,UTQ2019,North
2017-12-07T16:59:31Z,1512665971,2017,17,0,341.708,341.708,71.3696,-156.4102,1020.2,-11.21,-999.0,yes,yes,no,300234063986340,ICEBALL,USIABP,UTQ2019,North
2017-12-07T18:00:00Z,1512669600,2017,18,0,341.75,341.75,71.3694,-156.4102,1020.3,-11.64,-999.0,yes,yes,no,300234063986340,ICEBALL,USIABP,UTQ2019,North
2017-12-07T19:00:28Z,1512673229,2017,19,0,341.792,341.792,71.3696,-156.4104,1020.8,-12.22,-999.0,yes,yes,no,300234063986340,ICEBALL,USIABP,UTQ2019,North
2017-12-07T19:59:31Z,1512676771,2017,20,0,341.833,341.833,71.3694,-156.4102,1020.8,-11.62,-999.0,yes,yes,no,300234063986340,ICEBALL,USIABP,UTQ2019,North
2017-12-07T21:00:00Z,1512680400,2017,21,0,341.875,341.875,71.3696,-156.4104,1020.9,-11.85,-999.0,yes,yes,no,300234063986340,ICEBALL,USIABP,UTQ2019,North
2017-12-07T22:00:28Z,1512684029,2017,22,0,341.917,341.917,71.3694,-156.4102,1021.1,-11.93,-999.0,yes,yes,no,300234063986340,ICEBALL,USIABP,UTQ2019,North
2017-12-07T22:59:31Z,1512687571,2017,23,0,341.958,341.958,71.3694,-156.4102,1021.3,-12.14,-999.0,yes,yes,no,300234063986340,ICEBALL,USIABP,UTQ2019,North
2017-12-08T00:00:00Z,1512691200,2017,0,0,342.0,342.0,71.3694,-156.4102,1020.8,-12.12,-999.0,yes,yes,no,300234063986340,ICEBALL,USIABP,UTQ2019,North
2017-12-08T01:00:28Z,1512694829,2017,1,0,342.042,342.042,71.3694,-156.41,1020.5,-12.15,-999.0,yes,yes,no,300234063986340,ICEBALL,USIABP,UTQ2019,North
2017-12-08T01:59:31Z,1512698371,2017,2,0,342.083,342.083,71.3694,-156.4102,1020.5,-12.42,-999.0,yes,yes,no,300234063986340,ICEBALL,USIABP,UTQ2019,North
2017-12-08T03:00:00Z,1512702000,2017,3,0,342.125,342.125,71.3694,-156.4102,1020.4,-13.05,-999.0,yes,yes,no,300234063986340,ICEBALL,USIABP,UTQ2019,North
2017-12-08T04:00:28Z,1512705629,2017,4,0,342.167,342.167,71.3696,-156.4102,1020.3,-13.86,-999.0,yes,yes,no,300234063986340,ICEBALL,USIABP,UTQ2019,North
2017-12-08T04:59:31Z,1512709171,2017,5,0,342.208,342.208,71.3694,-156.4102,1020.0,-13.63,-999.0,yes,yes,no,300234063986340,ICEBALL,USIABP,UTQ2019,North
2017-12-08T06:00:00Z,1512712800,2017,6,0,342.25,342.25,71.3694,-156.4102,1020.1,-14.62,-999.0,yes,yes,no,300234063986340,ICEBALL,USIABP,UTQ2019,North
2017-12-08T07:00:28Z,1512716429,2017,7,0,342.292,342.292,71.3694,-156.4102,1019.6,-14.64,-999.0,yes,yes,no,300234063986340,ICEBALL,USIABP,UTQ2019,North
2017-12-08T07:59:31Z,1512719971,2017,8,0,342.333,342.333,71.3694,-156.4102,1019.4,-15.31,-999.0,yes,yes,no,300234063986340,ICEBALL,USIABP,UTQ2019,North
2017-12-08T09:00:00Z,1512723600,2017,9,0,342.375,342.375,71.3694,-156.4102,1019.3,-15.92,-999.0,yes,yes,no,300234063986340,ICEBALL,USIABP,UTQ2019,North
2017-12-08T10:00:28Z,1512727229,2017,10,0,342.417,342.417,71.3694,-156.4102,1018.9,-15.74,-999.0,yes,yes,no,300234063986340,ICEBALL,USIABP,UTQ2019,North
2017-12-08T10:59:31Z,1512730771,2017,11,0,342.458,342.458,71.3696,-156.4102,1018.6,-16.08,-999.0,yes,yes,no,300234063986340,ICEBALL,USIABP,UTQ2019,North
2017-12-08T12:00:00Z,1512734400,2017,12,0,342.5,342.5,71.3694,-156.4102,1018.0,-16.25,-999.0,yes,yes,no,300234063986340,ICEBALL,USIABP,UTQ2019,North
2017-12-08T13:00:28Z,1512738029,2017,13,0,342.542,342.542,71.3696,-156.4102,1017.9,-16.31,-999.0,yes,yes,no,300234063986340,ICEBALL,USIABP,UTQ2019,North
2017-12-08T13:59:31Z,1512741571,2017,14,0,342.583,342.583,71.3694,-156.4102,1017.5,-16.19,-999.0,yes,yes,no,300234063986340,ICEBALL,USIABP,UTQ2019,North
2017-12-08T15:00:00Z,1512745200,2017,15,0,342.625,342.625,71.3694,-156.4102,1017.8,-16.1,-999.0,yes,yes,no,300234063986340,ICEBALL,USIABP,UTQ2019,North
2017-12-08T16:00:28Z,1512748829,2017,16,0,342.667,342.667,71.3696,-156.4102,1017.2,-16.11,-999.0,yes,yes,no,300234063986340,ICEBALL,USIABP,UTQ2019,North
2017-12-08T16:59:31Z,1512752371,2017,17,0,342.708,342.708,71.3696,-156.4102,1016.6,-16.01,-999.0,yes,yes,no,300234063986340,ICEBALL,USIABP,UTQ2019,North
2017-12-08T18:00:00Z,1512756000,2017,18,0,342.75,342.75,71.3694,-156.4102,1016.4,-15.94,-999.0,yes,yes,no,300234063986340,ICEBALL,USIABP,UTQ2019,North
2017-12-08T19:00:28Z,1512759629,2017,19,0,342.792,342.792,71.3694,-156.4102,1016.6,-15.79,-999.0,yes,yes,no,300234063986340,ICEBALL,USIABP,UTQ2019,North
2017-12-08T19:59:31Z,1512763171,2017,20,0,342.833,342.833,71.3694,-156.4102,1017.1,-15.59,-999.0,yes,yes,no,300234063986340,ICEBALL,USIABP,UTQ2019,North
2017-12-08T21:00:00Z,1512766800,2017,21,0,342.875,342.875,71.3696,-156.4102,1017.2,-15.37,-999.0,yes,yes,no,300234063986340,ICEBALL,USIABP,UTQ2019,North
2017-12-08T22:00:28Z,1512770429,2017,22,0,342.917,342.917,71.3694,-156.4102,1017.2,-15.05,-999.0,yes,yes,no,300234063986340,ICEBALL,USIABP,UTQ2019,North
2017-12-08T22:59:31Z,1512773971,2017,23,0,342.958,342.958,71.3696,-156.4104,1017.5,-14.8,-999.0,yes,yes,no,300234063986340,ICEBALL,USIABP,UTQ2019,North
2017-12-09T00:00:00Z,1512777600,2017,0,0,343.0,343.0,71.3694,-156.4102,1017.5,-14.62,-999.0,yes,yes,no,300234063986340,ICEBALL,USIABP,UTQ2019,North
2017-12-09T01:00:28Z,1512781229,2017,1,0,343.042,343.042,71.3694,-156.4102,1017.4,-14.49,-999.0,yes,yes,no,300234063986340,ICEBALL,USIABP,UTQ2019,North
2017-12-09T01:59:31Z,1512784771,2017,2,0,343.083,343.083,71.3694,-156.4102,1017.5,-14.41,-999.0,yes,yes,no,300234063986340,ICEBALL,USIABP,UTQ2019,North
2017-12-09T03:00:00Z,1512788400,2017,3,0,343.125,343.125,71.3694,-156.4104,1017.8,-14.37,-999.0,yes,yes,no,300234063986340,ICEBALL,USIABP,UTQ2019,North
2017-12-09T04:00:28Z,1512792029,2017,4,0,343.167,343.167,71.3696,-156.4104,1018.5,-14.4,-999.0,yes,yes,no,300234063986340,ICEBALL,USIABP,UTQ2019,North
2017-12-09T04:59:31Z,1512795571,2017,5,0,343.208,343.208,71.3694,-156.4102,1018.5,-14.5,-999.0,yes,yes,no,300234063986340,ICEBALL,USIABP,UTQ2019,North
2017-12-09T06:00:00Z,1512799200,2017,6,0,343.25,343.25,71.3694,-156.4102,1019.0,-14.57,-999.0,yes,yes,no,300234063986340,ICEBALL,USIABP,UTQ2019,North
2017-12-09T07:00:28Z,1512802829,2017,7,0,343.292,343.292,71.3696,-156.4102,1019.3,-14.3,-999.0,yes,yes,no,300234063986340,ICEBALL,USIABP,UTQ2019,North
2017-12-09T07:59:31Z,1512806371,2017,8,0,343.333,343.333,71.3694,-156.4102,1019.3,-14.33,-999.0,yes,yes,no,300234063986340,ICEBALL,USIABP,UTQ2019,North
2017-12-09T09:00:00Z,1512810000,2017,9,0,343.375,343.375,71.3694,-156.4102,1019.6,-14.31,-999.0,yes,yes,no,300234063986340,ICEBALL,USIABP,UTQ2019,North
2017-12-09T10:00:28Z,1512813629,2017,10,0,343.417,343.417,71.3694,-156.4102,1020.0,-14.4,-999.0,yes,yes,no,300234063986340,ICEBALL,USIABP,UTQ2019,North
2017-12-09T10:59:31Z,1512817171,2017,11,0,343.458,343.458,71.3694,-156.4102,1020.2,-14.4,-999.0,yes,yes,no,300234063986340,ICEBALL,USIABP,UTQ2019,North
2017-12-09T12:00:00Z,1512820800,2017,12,0,343.5,343.5,71.3694,-156.4102,1020.1,-14.55,-999.0,yes,yes,no,300234063986340,ICEBALL,USIABP,UTQ2019,North
2017-12-09T13:00:28Z,1512824429,2017,13,0,343.542,343.542,71.3696,-156.4102,1020.9,-14.67,-999.0,yes,yes,no,300234063986340,ICEBALL,USIABP,UTQ2019,North
2017-12-09T13:59:31Z,1512827971,2017,14,0,343.583,343.583,71.3696,-156.4102,1021.0,-14.79,-999.0,yes,yes,no,300234063986340,ICEBALL,USIABP,UTQ2019,North
2017-12-09T15:00:00Z,1512831600,2017,15,0,343.625,343.625,71.3694,-156.4102,1021.1,-14.92,-999.0,yes,yes,no,300234063986340,ICEBALL,USIABP,UTQ2019,North
2017-12-09T16:00:28Z,1512835229,2017,16,0,343.667,343.667,71.3696,-156.4102,1021.3,-14.92,-999.0,yes,yes,no,300234063986340,ICEBALL,USIABP,UTQ2019,North
2017-12-09T16:59:31Z,1512838771,2017,17,0,343.708,343.708,71.3696,-156.4102,1021.3,-14.82,-999.0,yes,yes,no,300234063986340,ICEBALL,USIABP,UTQ2019,North
2017-12-09T18:00:00Z,1512842400,2017,18,0,343.75,343.75,71.3694,-156.4102,1021.8,-14.9,-999.0,yes,yes,no,300234063986340,ICEBALL,USIABP,UTQ2019,North
2017-12-09T19:00:28Z,1512846029,2017,19,0,343.792,343.792,71.3694,-156.4102,1021.9,-14.72,-999.0,yes,yes,no,300234063986340,ICEBALL,USIABP,UTQ2019,North
2017-12-09T19:59:31Z,1512849571,2017,20,0,343.833,343.833,71.3694,-156.4102,1022.3,-14.73,-999.0,yes,yes,no,300234063986340,ICEBALL,USIABP,UTQ2019,North
2017-12-09T21:00:00Z,1512853200,2017,21,0,343.875,343.875,71.3694,-156.4102,1022.4,-14.65,-999.0,yes,yes,no,300234063986340,ICEBALL,USIABP,UTQ2019,North
2017-12-09T22:00:28Z,1512856829,2017,22,0,343.917,343.917,71.3694,-156.4102,1022.5,-14.7,-999.0,yes,yes,no,300234063986340,ICEBALL,USIABP,UTQ2019,North
2017-12-09T22:59:31Z,1512860371,2017,23,0,343.958,343.958,71.3696,-156.4102,1022.7,-14.78,-999.0,yes,yes,no,300234063986340,ICEBALL,USIABP,UTQ2019,North
2017-12-10T00:00:00Z,1512864000,2017,0,0,344.0,344.0,71.3694,-156.4102,1022.5,-14.8,-999.0,yes,yes,no,300234063986340,ICEBALL,USIABP,UTQ2019,North
2017-12-10T01:00:28Z,1512867629,2017,1,0,344.042,344.042,71.3694,-156.4102,1022.3,-14.84,-999.0,yes,yes,no,300234063986340,ICEBALL,USIABP,UTQ2019,North
2017-12-10T01:59:31Z,1512871171,2017,2,0,344.083,344.083,71.3694,-156.4104,1022.6,-14.66,-999.0,yes,yes,no,300234063986340,ICEBALL,USIABP,UTQ2019,North
2017-12-10T03:00:00Z,1512874800,2017,3,0,344.125,344.125,71.3694,-156.4102,1022.6,-14.4,-999.0,yes,yes,no,300234063986340,ICEBALL,USIABP,UTQ2019,North
2017-12-10T04:00:28Z,1512878429,2017,4,0,344.167,344.167,71.3694,-156.4102,1022.7,-14.24,-999.0,yes,yes,no,300234063986340,ICEBALL,USIABP,UTQ2019,North
2017-12-10T04:59:31Z,1512881971,2017,5,0,344.208,344.208,71.3696,-156.4102,1022.5,-14.19,-999.0,yes,yes,no,300234063986340,ICEBALL,USIABP,UTQ2019,North
2017-12-10T06:00:00Z,1512885600,2017,6,0,344.25,344.25,71.3694,-156.4102,1022.5,-14.43,-999.0,yes,yes,no,300234063986340,ICEBALL,USIABP,UTQ2019,North
2017-12-10T07:00:28Z,1512889229,2017,7,0,344.292,344.292,71.3694,-156.4102,1022.4,-14.58,-999.0,yes,yes,no,300234063986340,ICEBALL,USIABP,UTQ2019,North
2017-12-10T07:59:31Z,1512892771,2017,8,0,344.333,344.333,71.3694,-156.4102,1022.5,-14.57,-999.0,yes,yes,no,300234063986340,ICEBALL,USIABP,UTQ2019,North
2017-12-10T09:00:00Z,1512896400,2017,9,0,344.375,344.375,71.3696,-156.4104,1022.7,-14.18,-999.0,yes,yes,no,300234063986340,ICEBALL,USIABP,UTQ2019,North
2017-12-10T10:00:28Z,1512900029,2017,10,0,344.417,344.417,71.3696,-156.4102,1022.8,-14.08,-999.0,yes,yes,no,300234063986340,ICEBALL,USIABP,UTQ2019,North
2017-12-10T10:59:31Z,1512903571,2017,11,0,344.458,344.458,71.3694,-156.4102,1023.0,-14.13,-999.0,yes,yes,no,300234063986340,ICEBALL,USIABP,UTQ2019,North
2017-12-10T12:00:00Z,1512907200,2017,12,0,344.5,344.5,71.3696,-156.4102,1022.9,-14.18,-999.0,yes,yes,no,300234063986340,ICEBALL,USIABP,UTQ2019,North
2017-12-10T13:00:28Z,1512910829,2017,13,0,344.542,344.542,71.3696,-156.4102,1022.9,-14.42,-999.0,yes,yes,no,300234063986340,ICEBALL,USIABP,UTQ2019,North
2017-12-10T13:59:31Z,1512914371,2017,14,0,344.583,344.583,71.3694,-156.4102,1022.9,-14.56,-999.0,yes,yes,no,300234063986340,ICEBALL,USIABP,UTQ2019,North
2017-12-10T15:00:00Z,1512918000,2017,15,0,344.625,344.625,71.3696,-156.4104,1022.9,-14.71,-999.0,yes,yes,no,300234063986340,ICEBALL,USIABP,UTQ2019,North
2017-12-10T16:00:28Z,1512921629,2017,16,0,344.667,344.667,71.3696,-156.4104,1023.1,-16.21,-999.0,yes,yes,no,300234063986340,ICEBALL,USIABP,UTQ2019,North
2017-12-10T16:59:31Z,1512925171,2017,17,0,344.708,344.708,71.3694,-156.4102,1023.4,-15.97,-999.0,yes,yes,no,300234063986340,ICEBALL,USIABP,UTQ2019,North
2017-12-10T18:00:00Z,1512928800,2017,18,0,344.75,344.75,71.3694,-156.4102,1023.4,-15.96,-999.0,yes,yes,no,300234063986340,ICEBALL,USIABP,UTQ2019,North
2017-12-10T19:00:28Z,1512932429,2017,19,0,344.792,344.792,71.3694,-156.4102,1023.7,-15.82,-999.0,yes,yes,no,300234063986340,ICEBALL,USIABP,UTQ2019,North
2017-12-10T19:59:31Z,1512935971,2017,20,0,344.833,344.833,71.3694,-156.4102,1023.8,-15.75,-999.0,yes,yes,no,300234063986340,ICEBALL,USIABP,UTQ2019,North
2017-12-10T21:00:00Z,1512939600,2017,21,0,344.875,344.875,71.3696,-156.4104,1024.0,-15.8,-999.0,yes,yes,no,300234063986340,ICEBALL,USIABP,UTQ2019,North
2017-12-10T22:00:28Z,1512943229,2017,22,0,344.917,344.917,71.3694,-156.4102,1024.2,-15.69,-999.0,yes,yes,no,300234063986340,ICEBALL,USIABP,UTQ2019,North
2017-12-10T22:59:31Z,1512946771,2017,23,0,344.958,344.958,71.3694,-156.4102,1023.7,-15.78,-999.0,yes,yes,no,300234063986340,ICEBALL,USIABP,UTQ2019,North
2017-12-11T00:00:00Z,1512950400,2017,0,0,345.0,345.0,71.3694,-156.4102,1023.5,-15.65,-999.0,yes,yes,no,300234063986340,ICEBALL,USIABP,UTQ2019,North
2017-12-11T01:00:28Z,1512954029,2017,1,0,345.042,345.042,71.3694,-156.4102,1023.3,-15.7,-999.0,yes,yes,no,300234063986340,ICEBALL,USIABP,UTQ2019,North
2017-12-11T01:59:31Z,1512957571,2017,2,0,345.083,345.083,71.3694,-156.4104,1023.3,-15.83,-999.0,yes,yes,no,300234063986340,ICEBALL,USIABP,UTQ2019,North
2017-12-11T03:00:00Z,1512961200,2017,3,0,345.125,345.125,71.3694,-156.4102,1023.2,-16.14,-999.0,yes,yes,no,300234063986340,ICEBALL,USIABP,UTQ2019,North
2017-12-11T04:00:28Z,1512964829,2017,4,0,345.167,345.167,71.3694,-156.4102,1023.0,-16.33,-999.0,yes,yes,no,300234063986340,ICEBALL,USIABP,UTQ2019,North
2017-12-11T04:59:31Z,1512968371,2017,5,0,345.208,345.208,71.3694,-156.4102,1022.6,-16.38,-999.0,yes,yes,no,300234063986340,ICEBALL,USIABP,UTQ2019,North
2017-12-11T06:00:00Z,1512972000,2017,6,0,345.25,345.25,71.3694,-156.4102,1022.1,-16.32,-999.0,yes,yes,no,300234063986340,ICEBALL,USIABP,UTQ2019,North
2017-12-11T07:00:28Z,1512975629,2017,7,0,345.292,345.292,71.3694,-156.4102,1021.8,-16.13,-999.0,yes,yes,no,300234063986340,ICEBALL,USIABP,UTQ2019,North
2017-12-11T07:59:31Z,1512979171,2017,8,0,345.333,345.333,71.3694,-156.4102,1020.8,-16.12,-999.0,yes,yes,no,300234063986340,ICEBALL,USIABP,UTQ2019,North
2017-12-11T09:00:00Z,1512982800,2017,9,0,345.375,345.375,71.3694,-156.4104,1019.7,-16.28,-999.0,yes,yes,no,300234063986340,ICEBALL,USIABP,UTQ2019,North
2017-12-11T10:00:28Z,1512986429,2017,10,0,345.417,345.417,71.3696,-156.4102,1019.1,-16.14,-999.0,yes,yes,no,300234063986340,ICEBALL,USIABP,UTQ2019,North
2017-12-11T10:59:31Z,1512989971,2017,11,0,345.458,345.458,71.3696,-156.4102,1017.8,-15.76,-999.0,yes,yes,no,300234063986340,ICEBALL,USIABP,UTQ2019,North
2017-12-11T12:00:00Z,1512993600,2017,12,0,345.5,345.5,71.3694,-156.4102,1016.4,-15.63,-999.0,yes,yes,no,300234063986340,ICEBALL,USIABP,UTQ2019,North
2017-12-11T13:00:28Z,1512997229,2017,13,0,345.542,345.542,71.3696,-156.4102,1015.5,-15.06,-999.0,yes,yes,no,300234063986340,ICEBALL,USIABP,UTQ2019,North
2017-12-11T13:59:31Z,1513000771,2017,14,0,345.583,345.583,71.3696,-156.4102,1014.6,-14.89,-999.0,yes,yes,no,300234063986340,ICEBALL,USIABP,UTQ2019,North
2017-12-11T15:00:00Z,1513004400,2017,15,0,345.625,345.625,71.3694,-156.4102,1014.1,-14.51,-999.0,yes,yes,no,300234063986340,ICEBALL,USIABP,UTQ2019,North
2017-12-11T16:00:28Z,1513008029,2017,16,0,345.667,345.667,71.3696,-156.4102,1013.7,-14.04,-999.0,yes,yes,no,300234063986340,ICEBALL,USIABP,UTQ2019,North
2017-12-11T16:59:31Z,1513011571,2017,17,0,345.708,345.708,71.3696,-156.4102,1013.0,-13.92,-999.0,yes,yes,no,300234063986340,ICEBALL,USIABP,UTQ2019,North
2017-12-11T18:00:00Z,1513015200,2017,18,0,345.75,345.75,71.3694,-156.4102,1012.9,-13.88,-999.0,yes,yes,no,300234063986340,ICEBALL,USIABP,UTQ2019,North
2017-12-11T19:00:28Z,1513018829,2017,19,0,345.792,345.792,71.3694,-156.4102,1012.5,-14.04,-999.0,yes,yes,no,300234063986340,ICEBALL,USIABP,UTQ2019,North
2017-12-11T19:59:31Z,1513022371,2017,20,0,345.833,345.833,71.3694,-156.4102,1012.5,-14.24,-999.0,yes,yes,no,300234063986340,ICEBALL,USIABP,UTQ2019,North
2017-12-11T21:00:00Z,1513026000,2017,21,0,345.875,345.875,71.3696,-156.4104,1012.8,-14.17,-999.0,yes,yes,no,300234063986340,ICEBALL,USIABP,UTQ2019,North
2017-12-11T22:00:28Z,1513029629,2017,22,0,345.917,345.917,71.3694,-156.4102,1012.5,-13.76,-999.0,yes,yes,no,300234063986340,ICEBALL,USIABP,UTQ2019,North
2017-12-11T22:59:31Z,1513033171,2017,23,0,345.958,345.958,71.3694,-156.4104,1012.1,-13.56,-999.0,yes,yes,no,300234063986340,ICEBALL,USIABP,UTQ2019,North
2017-12-12T00:00:00Z,1513036800,2017,0,0,346.0,346.0,71.3694,-156.4102,1012.0,-13.35,-999.0,yes,yes,no,300234063986340,ICEBALL,USIABP,UTQ2019,North
2017-12-12T01:00:28Z,1513040429,2017,1,0,346.042,346.042,71.3694,-156.4102,1011.9,-12.44,-999.0,yes,yes,no,300234063986340,ICEBALL,USIABP,UTQ2019,North
2017-12-12T01:59:31Z,1513043971,2017,2,0,346.083,346.083,71.3694,-156.4104,1012.3,-12.41,-999.0,yes,yes,no,300234063986340,ICEBALL,USIABP,UTQ2019,North